CW0237 Weather Reports


time (UTC)temp
C
wind
direction
speed
KPH
gust
KPH
rain 1hr
cm
rain 24hr
cm
rain mn
cm
humidity
%
barometer
mb
20260503025206 8 234 0.0 0.0 0.00 0.13 0.13 92 1009.0
20260503024204 8 234 0.0 0.0 0.00 0.13 0.13 93 1009.0
20260503023704 8 234 0.0 0.0 0.00 0.13 0.13 93 1009.0
20260503022205 8 234 1.6 3.2 0.00 0.13 0.13 92 1009.0
20260503021204 8 234 0.0 0.0 0.00 0.13 0.13 92 1008.8
20260503020705 8 244 0.0 0.0 0.00 0.13 0.13 92 1008.8
20260503020204 8 269 0.0 0.0 0.00 0.13 0.13 92 1008.9
20260503014705 8 234 0.0 0.0 0.00 0.13 0.13 92 1009.1
20260503014204 8 234 0.0 0.0 0.00 0.13 0.13 92 1009.1
20260503013205 9 234 0.0 0.0 0.00 0.13 0.13 92 1009.2
20260503011705 9 234 0.0 0.0 0.00 0.13 0.13 92 1009.1
20260503005204 9 234 0.0 0.0 0.00 0.13 0.13 91 1008.9
20260503004705 9 261 0.0 0.0 0.00 0.13 0.13 91 1008.8
20260503004204 9 234 0.0 0.0 0.00 0.13 0.13 91 1008.7
20260503002205 9 234 0.0 0.0 0.00 0.13 0.13 91 1008.8
20260503000206 10 304 0.0 0.0 0.00 0.13 0.13 90 1008.8
20260502234207 10 234 0.0 0.0 0.00 0.13 0.13 90 1008.7
20260502233705 10 234 0.0 0.0 0.00 0.13 0.13 90 1008.7
20260502232704 10 289 0.0 0.0 0.00 0.13 0.13 90 1008.6
20260502231704 10 234 0.0 1.6 0.03 0.13 0.13 90 1008.6
20260502231204 10 234 0.0 0.0 0.03 0.13 0.13 89 1008.7
20260502230205 10 234 0.0 0.0 0.03 0.13 0.13 89 1008.7
20260502225704 10 234 0.0 0.0 0.03 0.13 0.13 89 1008.7
20260502224704 10 308 0.0 0.0 0.03 0.13 0.13 89 1008.5
20260502224205 10 234 0.0 0.0 0.03 0.13 0.13 88 1008.4
20260502223204 10 234 0.0 1.6 0.03 0.13 0.13 88 1008.4
20260502222704 10 234 0.0 0.0 0.03 0.13 0.13 88 1008.6
20260502222206 10 237 0.0 0.0 0.03 0.13 0.13 87 1008.7
20260502221705 10 234 0.0 0.0 0.00 0.10 0.10 87 1008.6
20260502221204 10 259 0.0 0.0 0.00 0.10 0.10 86 1008.7
20260502220704 10 0 0.0 1.6 0.00 0.10 0.10 86 1008.9
20260502215204 11 0 1.6 3.2 0.00 0.10 0.10 84 1008.9
20260502214704 11 0 1.6 3.2 0.00 0.10 0.10 83 1008.8
20260502214204 11 0 1.6 4.8 0.00 0.10 0.10 82 1008.8
20260502212704 12 0 3.2 4.8 0.00 0.10 0.10 79 1008.8
20260502212204 12 357 4.8 9.7 0.00 0.10 0.10 78 1008.7
20260502210705 12 201 1.6 3.2 0.00 0.10 0.10 78 1008.5
20260502204204 12 202 3.2 14.5 0.00 0.10 0.10 75 1008.3
20260502203704 12 193 3.2 8.0 0.00 0.10 0.10 76 1008.4
20260502203204 12 194 1.6 11.3 0.00 0.10 0.10 76 1008.3
20260502202704 12 195 1.6 4.8 0.00 0.10 0.10 75 1008.4
20260502202204 13 195 3.2 8.0 0.00 0.10 0.10 74 1008.5
20260502201705 13 194 3.2 8.0 0.00 0.10 0.10 73 1008.4
20260502200705 13 214 3.2 12.9 0.00 0.10 0.10 72 1008.6
20260502194205 13 192 4.8 16.1 0.00 0.10 0.10 74 1008.7
20260502193704 13 355 4.8 4.8 0.00 0.10 0.10 74 1008.8
20260502192705 13 187 3.2 9.7 0.00 0.10 0.10 76 1009.0
20260502192204 12 188 1.6 4.8 0.00 0.10 0.10 76 1009.0
20260502190706 12 180 4.8 16.1 0.03 0.10 0.10 76 1009.1
20260502185704 12 192 1.6 4.8 0.03 0.10 0.10 81 1009.2
20260502185204 12 192 3.2 8.0 0.03 0.10 0.10 82 1009.2
20260502181704 10 191 3.2 4.8 0.05 0.10 0.10 88 1009.3
20260502181206 10 192 3.2 9.7 0.08 0.10 0.10 88 1009.4
20260502180704 10 196 1.6 4.8 0.05 0.08 0.08 88 1009.4
20260502162704 12 194 4.8 9.7 0.00 0.03 0.03 70 1009.8
20260502161704 12 236 3.2 9.7 0.00 0.03 0.03 74 1009.8
20260502160204 12 257 4.8 11.3 0.00 0.03 0.03 77 1010.0
20260502152204 12 278 0.0 4.8 0.00 0.03 0.03 81 1010.0
20260502151205 12 277 1.6 4.8 0.00 0.03 0.03 81 1010.4
20260502150204 12 277 1.6 3.2 0.00 0.03 0.03 82 1010.2
20260502122705 10 279 1.6 11.3 0.00 0.00 0.00 84 1011.4
20260502121705 10 277 1.6 9.7 0.00 0.00 0.00 85 1011.3
20260502121204 10 276 1.6 9.7 0.00 0.00 0.00 85 1010.9
20260502120705 10 276 3.2 4.8 0.00 0.00 0.00 85 1010.7
20260502115704 9 276 1.6 3.2 0.00 0.00 0.00 85 1010.6
20260502113705 9 352 1.6 3.2 0.00 0.03 0.00 85 1010.3
20260502113204 8 272 3.2 4.8 0.00 0.03 0.00 85 1010.5
20260502112706 8 272 1.6 3.2 0.00 0.03 0.00 86 1010.4
20260502112204 8 272 0.0 4.8 0.00 0.03 0.00 86 1010.5
20260502104704 8 272 1.6 3.2 0.00 0.03 0.00 85 1010.3
20260502104204 8 272 1.6 3.2 0.00 0.03 0.00 85 1010.3
20260502103705 8 272 0.0 1.6 0.00 0.03 0.00 85 1010.2
20260502103204 8 272 1.6 3.2 0.00 0.03 0.00 86 1010.2
20260502102705 8 272 1.6 4.8 0.00 0.03 0.00 86 1010.3
20260502102204 8 272 3.2 4.8 0.00 0.03 0.00 86 1010.2
20260502101204 8 271 0.0 1.6 0.00 0.03 0.00 86 1010.0
20260502091205 8 340 1.6 3.2 0.00 0.03 0.00 84 1009.8
20260502090204 8 356 1.6 3.2 0.00 0.03 0.00 84 1009.9
20260502071204 9 272 1.6 3.2 0.00 0.03 0.00 77 1009.9
20260502070704 9 272 1.6 1.6 0.00 0.03 0.00 77 1009.9
20260502070204 9 272 0.0 1.6 0.00 0.03 0.00 76 1009.9
20260502063204 9 272 1.6 3.2 0.00 0.03 0.00 75 1010.1
20260502062204 9 272 1.6 4.8 0.00 0.03 0.00 75 1010.0
20260502061204 9 272 1.6 4.8 0.00 0.03 0.00 74 1009.9
20260502055706 9 272 1.6 3.2 0.00 0.03 0.00 74 1009.9
20260502054204 9 272 1.6 4.8 0.00 0.03 0.00 73 1010.0
20260502053204 9 272 1.6 4.8 0.00 0.03 0.00 72 1010.1
20260502051704 10 354 1.6 3.2 0.00 0.03 0.00 71 1010.0
20260502050705 10 284 1.6 4.8 0.00 0.03 0.00 70 1010.1
20260502050205 10 272 1.6 4.8 0.00 0.03 0.00 70 1010.1
20260502045205 10 273 1.6 3.2 0.00 0.03 0.00 69 1010.1
20260502035204 10 272 1.6 4.8 0.00 0.03 0.03 66 1010.1
20260502034704 10 0 3.2 4.8 0.00 0.03 0.03 65 1010.2
20260502033707 10 0 1.6 4.8 0.00 0.03 0.03 65 1010.3
20260502032704 10 273 1.6 3.2 0.00 0.03 0.03 65 1010.4
20260502032204 10 274 1.6 3.2 0.00 0.03 0.03 65 1010.3
20260502031207 10 273 1.6 4.8 0.00 0.03 0.03 64 1010.2
20260502030704 10 274 1.6 3.2 0.00 0.03 0.03 64 1010.2
20260502030205 10 273 1.6 3.2 0.00 0.03 0.03 64 1010.1